This is the latest recevied weather packets stored in our database for station/object K1ZK-13. If no packets are shown the sender has not sent any weather packets the latest 10 day(s).
| Time | Temp. | Humidity | Pressure | Rain* | Wind** | Luminosity | Snow |
|---|---|---|---|---|---|---|---|
| 1777556870 | 10.56° C | 96% | 1006.3 hPa | 0 mm | - | 132 W/m² | - |
| 1777556566 | 10.56° C | 96% | 1006.4 hPa | 0 mm | - | 103 W/m² | - |
| 1777556266 | 11.11° C | 97% | 1006.3 hPa | 0 mm | - | 144 W/m² | - |
| 1777555962 | 10.56° C | 97% | 1006.3 hPa | 0 mm | - | 178 W/m² | - |
| 1777555658 | 10.56° C | 97% | 1006.4 hPa | 0 mm | - | 168 W/m² | - |
| 1777555354 | 10.56° C | 98% | 1006.4 hPa | 0 mm | - | 172 W/m² | - |
| 1777555051 | 10.56° C | 98% | 1006.5 hPa | 0 mm | - | 228 W/m² | - |
| 1777554748 | 10.56° C | 98% | 1006.5 hPa | 0 mm | - | 173 W/m² | - |
| 1777554445 | 10° C | 98% | 1006.6 hPa | 0 mm | - | 137 W/m² | - |
| 1777554141 | 10° C | 97% | 1006.6 hPa | 0 mm | - | 94 W/m² | - |
| 1777553839 | 10° C | 98% | 1006.6 hPa | 0 mm | - | 79 W/m² | - |
| 1777553535 | 10° C | 98% | 1006.7 hPa | 0 mm | - | 69 W/m² | - |
| 1777553231 | 10° C | 98% | 1006.6 hPa | 0 mm | - | 75 W/m² | - |
| 1777552927 | 10° C | 98% | 1006.8 hPa | 0 mm | - | 82 W/m² | - |
| 1777552621 | 10° C | 98% | 1006.5 hPa | 0 mm | - | 68 W/m² | - |
| 1777552319 | 10° C | 99% | 1006.5 hPa | 0 mm | - | 66 W/m² | - |
| 1777552015 | 9.44° C | 98% | 1006.6 hPa | 0 mm | - | 69 W/m² | - |
| 1777551712 | 9.44° C | 99% | 1006.4 hPa | 0 mm | - | 66 W/m² | - |
| 1777551410 | 9.44° C | 99% | 1006.2 hPa | 0 mm | - | 58 W/m² | - |
| 1777551106 | 9.44° C | 99% | 1006.6 hPa | 0 mm | - | 52 W/m² | - |
| 1777550803 | 9.44° C | 99% | 1006.5 hPa | 0 mm | - | 39 W/m² | - |
| 1777550494 | 9.44° C | 99% | 1006.3 hPa | 0 mm | - | 30 W/m² | - |
| 1777550190 | 9.44° C | 99% | 1006 hPa | 0 mm | - | 30 W/m² | - |
| 1777549887 | 9.44° C | 99% | 1006.2 hPa | 0 mm | - | 40 W/m² | - |
| 1777549582 | 9.44° C | 99% | 1006.2 hPa | 0 mm | - | 34 W/m² | - |
* Rain latest hour (hover to see other rain measurements)
** Current wind speed in m/s (hover to see current wind gust speed)